[[{"header":{"parameterUnit":"m.s-1","parameterCategory":1,"la1":30.2991,"la2":30.254,"lo1":-89.0895,"lo2":-89.0444,"dy":0.0017,"dx":0.0017,"nx":28,"ny":28,"refTime":"2024-12-25T03:00:00:Z","depth":0,"parameterNumber":2,"parameterNumberName":"U-component_of_WINDS"},"data":[0,0,0,0,0,0,0,0,0,0,0,0,0,0,0,0,0,0,0,0,0,0,0,0,0,0,0,0,0,0,0,0,0,0,0,0,0,0,0,0,0,0,0,0,0,0,0,0,0,0,0,0,0,0,0,0,0,0,-4.0755,-4.0755,0,-4.076,-4.076,-4.076,-4.0616,-4.0612,-4.0608,-4.0605,-4.0612,-4.0615,-4.0619,0,0,0,0,0,0,0,0,0,0,0,0,0,-4.0622,-4.0625,-4.0755,-4.0755,-4.0755,-4.076,-4.076,-4.076,-4.0617,-4.0612,-4.0607,-4.0603,-4.061,-4.0615,-4.0619,0,0,0,0,0,0,0,0,0,0,0,0,0,-4.0659,-4.0626,-4.0755,-4.0684,-4.0678,-4.076,-4.076,-4.076,-4.0618,-4.0612,-4.0606,-4.0601,-4.0609,-4.0614,-4.062,-4.0771,0,0,-4.0637,-4.064,0,0,0,0,0,0,0,0,-4.0657,-4.0664,-4.0694,-4.0689,-4.0682,-4.0681,-4.0716,-4.0764,-4.0619,-4.0641,-4.0604,-4.0598,-4.064,-4.0642,-4.0656,-4.0771,-4.0772,-4.0638,-4.0641,-4.0644,-4.0645,0,0,0,0,0,0,0,-4.0655,-4.0663,-4.0757,-4.0695,-4.0687,-4.0652,-4.0651,-4.0724,-4.0673,-4.0638,-4.0628,-4.063,-4.0635,-4.0651,-4.0655,-4.0772,-4.0638,-4.0643,-4.0646,-4.0648,-4.1011,-4.1017,0,0,0,0,0,0,-4.0661,-4.0662,-4.0757,-4.0757,-4.0655,-4.0659,-4.0658,-4.0687,-4.0671,-4.0663,-4.0635,-4.0623,-4.0644,-4.0649,-4.0655,-4.0831,-4.0644,-4.0649,-4.0652,-4.1005,-4.1013,-4.1019,0,0,0,0,0,0,-4.0659,-4.0671,-4.0756,-4.0706,-4.0715,-4.0668,-4.0702,-4.0691,-4.0706,-4.0669,-4.0659,-4.0661,-4.064,-4.0647,-4.0743,-4.0829,-4.0652,-4.0657,-4.0998,-4.1007,-4.1016,-4.1184,0,0,0,0,0,0,-4.0656,-4.0671,-4.0728,-4.0709,-4.0718,-4.0845,-4.0707,-4.0695,-4.0716,-4.0701,-4.069,-4.0683,-4.0636,-4.0735,-4.0749,-4.0834,-4.0661,-4.099,-4.1002,-4.1013,-4.1171,-4.1198,-4.1222,0,0,0,0,0,-4.0652,-4.0776,-4.0732,-4.0744,-4.0788,-4.085,-4.0855,-4.0798,-4.0724,-4.0781,-4.0757,-4.0684,-4.0818,-4.0747,-4.076,-4.0848,-4.0984,-4.0999,-4.1012,-4.116,-4.1193,-4.1221,0,0,0,0,0,0,-4.0807,-4.0772,-4.0723,-4.0844,-4.0851,-4.0826,-4.0895,-4.0835,-4.0863,-4.0848,-4.0776,-4.0775,-4.0883,-4.0875,-4.0796,-4.0994,-4.0888,-4.0905,-4.0995,-4.1027,-4.1052,-4.1052,-4.0666,0,0,0,0,0,-4.0855,-4.0908,-4.0874,-4.0985,-4.0991,-4.0943,-4.0968,-4.0923,-4.0928,-4.093,-4.0913,-4.0921,-4.0964,-4.0995,-4.1033,-4.1169,-4.1165,-4.1236,-4.1262,-4.1283,-4.1299,-4.1371,-4.1402,-4.1065,-4.1065,-4.1065,0,0,-4.0955,-4.0943,-4.0981,-4.1016,-4.1016,-4.1073,-4.0946,-4.1012,-4.1054,-4.094,-4.103,-4.1018,-4.1022,-4.1139,-4.1189,-4.1135,-4.1391,-4.13,-4.1318,-4.1322,-4.1388,-4.142,-4.1449,-4.1075,-4.1073,-4.1072,0,0,-4.1167,-4.1163,-4.1254,-4.1257,-4.1259,-4.1226,-4.1248,-4.1232,-4.1219,-4.1308,-4.1224,-4.1273,-4.135,-4.1356,-4.1369,-4.1584,-4.1518,-4.1598,-4.1732,-4.1802,-4.1829,-4.1852,-4.1929,-4.1958,-4.1614,-4.1615,-4.1615,0,-4.1292,-4.1374,-4.1309,-4.1381,-4.1399,-4.1297,-4.139,-4.1396,-4.1411,-4.1426,-4.1365,-4.1459,-4.1454,-4.1572,-4.1624,-4.1638,-4.1661,-4.16,-4.183,-4.1853,-4.1873,-4.1946,-4.1976,-4.1625,-4.1624,-4.1623,-4.1622,0,-4.1528,-4.1586,-4.166,-4.1676,-4.1702,-4.1784,-4.1732,-4.1766,-4.1719,-4.1693,-4.1785,-4.1776,-4.1811,-4.1835,-4.179,-4.1947,-4.1913,-4.1843,-4.1735,-4.1917,-4.1984,-4.2011,-4.1639,-4.1635,-4.1632,-4.163,0,0,-4.1838,-4.1817,-4.1845,-4.1851,-4.1846,-4.189,-4.1967,-4.2,-4.2032,-4.2045,-4.2109,-4.2176,-4.2111,-4.2126,-4.208,-4.2143,-4.2314,-4.2064,-4.2063,-4.2112,-4.2487,-4.2541,-4.2574,-4.227,-4.2275,-4.2279,-4.2487,0,-4.2044,-4.2175,-4.2119,-4.2255,-4.2308,-4.2213,-4.228,-4.2285,-4.2262,-4.2305,-4.228,-4.2329,-4.2239,-4.2247,-4.2305,-4.2281,-4.2389,-4.2265,-4.2329,-4.2332,-4.2332,-4.2609,-4.2666,-4.2863,-4.2513,-4.2517,-4.252,0,-4.2303,-4.2326,-4.2468,-4.2453,-4.2473,-4.2535,-4.2561,-4.2603,-4.2606,-4.2585,-4.2603,-4.2543,-4.2618,-4.2511,-4.2614,-4.2531,-4.2554,-4.2546,-4.2553,-4.2557,-4.2438,-4.2622,-4.2924,-4.2954,-4.2561,-4.2558,-4.2555,0,-4.2516,-4.2583,-4.2677,-4.2685,-4.2669,-4.2715,-4.2711,-4.2708,-4.2732,-4.2755,-4.277,-4.2802,-4.2819,-4.2846,-4.2797,-4.2723,-4.2907,-4.2795,-4.2893,-4.2895,-4.2937,-4.2935,-4.3248,-4.2951,-4.295,-4.295,-4.2949,0,-4.2753,-4.2844,-4.2772,-4.283,-4.2929,-4.2863,-4.2963,-4.2949,-4.2947,-4.3001,-4.292,-4.2972,-4.2903,-4.2949,-4.2911,-4.3003,-4.3011,-4.2997,-4.2986,-4.3005,-4.3007,-4.302,-4.3005,-4.2957,-4.2956,-4.2954,-4.2953,0,-4.3008,-4.2964,-4.306,-4.3037,-4.3034,-4.3108,-4.3088,-4.3141,-4.3113,-4.3182,-4.3194,-4.3151,-4.32,-4.3154,-4.3201,-4.3175,-4.3298,-4.3267,-4.3297,-4.3289,-4.339,-4.3381,-4.3722,-4.3764,-4.3439,-4.3443,-4.3445,0,-4.3163,-4.323,-4.3215,-4.3245,-4.3245,-4.3294,-4.3318,-4.3256,-4.3284,-4.3293,-4.3345,-4.3388,-4.3418,-4.3502,-4.3475,-4.3511,-4.3481,-4.3598,-4.3486,-4.3503,-4.3484,-4.3481,-4.3487,-4.3621,-4.3625,-4.3628,-4.363,0,-4.3442,-4.3417,-4.3454,-4.3484,-4.3514,-4.3535,-4.3549,-4.3578,-4.3515,-4.3551,-4.36,-4.3624,-4.3672,-4.3716,-4.3743,-4.3739,-4.3676,-4.3666,-4.369,-4.3711,-4.3726,-4.372,-4.336,-4.3658,-4.3656,-4.3654,-4.3652,-4.3651,-4.3652,-4.3708,-4.3706,-4.375,-4.3754,-4.3769,-4.3818,-4.3796,-4.3835,-4.3869,-4.383,-4.3891,-4.3893,-4.3923,-4.3926,-4.3973,-4.3924,-4.396,-4.3969,-4.3979,-4.3994,-4.3718,-4.3978,-4.3977,-4.3976,-4.3976,-4.3975,0,-4.3928,-4.3921,-4.3963,-4.3985,-4.402,-4.3956,-4.3968,-4.4002,-4.4057,-4.4063,-4.4095,-4.4152,-4.4194,-4.417,-4.4206,-4.4249,-4.4221,-4.4261,-4.4257,-4.4258,-4.4036,-4.4011,-4.4283,-4.4283,-4.4283,-4.4283,-4.4283,-4.4283,-4.4075,-4.4166,-4.4141,-4.4233,-4.4226,-4.4285,-4.4298,-4.4312,-4.4316,-4.4384,-4.4418,-4.4402,-4.4397,-4.4432,-4.4468,-4.4459,-4.4477,-4.4528,-4.451,-4.4303,-4.4273,-4.4244,-4.4221,-4.4532,-4.4533,-4.4728,-4.473,-4.4731]},{"header":{"parameterUnit":"m.s-1","parameterCategory":1,"la1":30.2991,"la2":30.254,"lo1":-89.0895,"lo2":-89.0444,"dy":0.0017,"dx":0.0017,"nx":28,"ny":28,"refTime":"2024-12-25T03:00:00:Z","depth":0,"parameterNumber":3,"parameterNumberName":"V-component_of_WINDS"},"data":[0,0,0,0,0,0,0,0,0,0,0,0,0,0,0,0,0,0,0,0,0,0,0,0,0,0,0,0,0,0,0,0,0,0,0,0,0,0,0,0,0,0,0,0,0,0,0,0,0,0,0,0,0,0,0,0,0,0,-0.1268,-0.1268,0,-0.1307,-0.1307,-0.1308,-0.1338,-0.1338,-0.1339,-0.1339,-0.1379,-0.138,-0.138,0,0,0,0,0,0,0,0,0,0,0,0,0,-0.1219,-0.122,-0.1268,-0.1268,-0.1269,-0.1307,-0.1307,-0.1308,-0.1338,-0.1338,-0.1339,-0.1339,-0.1379,-0.138,-0.1381,0,0,0,0,0,0,0,0,0,0,0,0,0,-0.1247,-0.122,-0.1268,-0.1289,-0.1291,-0.1307,-0.1307,-0.1308,-0.1338,-0.1338,-0.1339,-0.1339,-0.1378,-0.1379,-0.1381,-0.1379,0,0,-0.1384,-0.1385,0,0,0,0,0,0,0,0,-0.1246,-0.1249,-0.1285,-0.1287,-0.129,-0.1318,-0.1305,-0.1332,-0.1338,-0.132,-0.1339,-0.1339,-0.1358,-0.1361,-0.1368,-0.1381,-0.1383,-0.1384,-0.1385,-0.1386,-0.1386,0,0,0,0,0,0,0,-0.1244,-0.1247,-0.1283,-0.1285,-0.1288,-0.1296,-0.13,-0.131,-0.1336,-0.1322,-0.1324,-0.1328,-0.136,-0.1366,-0.1369,-0.1384,-0.1384,-0.1385,-0.1386,-0.1387,-0.1398,-0.1397,0,0,0,0,0,0,-0.1238,-0.1246,-0.1282,-0.1285,-0.1268,-0.1296,-0.1301,-0.1309,-0.1336,-0.1341,-0.1328,-0.1329,-0.1364,-0.1367,-0.137,-0.1371,-0.1386,-0.1387,-0.1387,-0.1398,-0.1398,-0.1397,0,0,0,0,0,0,-0.1237,-0.1241,-0.1281,-0.1266,-0.1271,-0.1297,-0.1305,-0.1309,-0.1316,-0.1341,-0.1346,-0.133,-0.1365,-0.1369,-0.1377,-0.1372,-0.1387,-0.1388,-0.1399,-0.1398,-0.1397,-0.1371,0,0,0,0,0,0,-0.1236,-0.1241,-0.1241,-0.1266,-0.1272,-0.1287,-0.1304,-0.131,-0.1318,-0.132,-0.1344,-0.1348,-0.1365,-0.1375,-0.1378,-0.1374,-0.1389,-0.1399,-0.1398,-0.1398,-0.1372,-0.137,-0.1367,0,0,0,0,0,-0.1234,-0.1232,-0.1241,-0.1245,-0.1272,-0.1286,-0.129,-0.1309,-0.1317,-0.1317,-0.1333,-0.1348,-0.1372,-0.1375,-0.1379,-0.1376,-0.1399,-0.1398,-0.1398,-0.1374,-0.137,-0.1367,0,0,0,0,0,0,-0.1206,-0.1236,-0.1246,-0.1252,-0.1266,-0.1291,-0.1292,-0.1305,-0.1318,-0.132,-0.1343,-0.1348,-0.1354,-0.1366,-0.1369,-0.1376,-0.1388,-0.1387,-0.1368,-0.1365,-0.1362,-0.136,-0.139,0,0,0,0,0,-0.1201,-0.121,-0.1235,-0.1238,-0.1244,-0.1267,-0.1274,-0.1287,-0.1303,-0.131,-0.1326,-0.1341,-0.1352,-0.1359,-0.1371,-0.1374,-0.1379,-0.1373,-0.1371,-0.1368,-0.1368,-0.137,-0.1368,-0.1394,-0.1394,-0.1394,0,0,-0.119,-0.1207,-0.1211,-0.1232,-0.1245,-0.1254,-0.1272,-0.128,-0.1287,-0.1311,-0.132,-0.1332,-0.1351,-0.1356,-0.1359,-0.1366,-0.1362,-0.1367,-0.1365,-0.1366,-0.1369,-0.1367,-0.1365,-0.1393,-0.1393,-0.1394,0,0,-0.1174,-0.1188,-0.1192,-0.1204,-0.1223,-0.1238,-0.1239,-0.1262,-0.1271,-0.128,-0.1299,-0.1306,-0.1325,-0.1337,-0.1346,-0.1334,-0.1347,-0.1337,-0.1323,-0.1325,-0.1323,-0.1321,-0.1317,-0.1315,-0.1336,-0.1336,-0.1336,0,-0.1158,-0.1172,-0.1192,-0.1199,-0.1208,-0.123,-0.1234,-0.1245,-0.1267,-0.1272,-0.1279,-0.1302,-0.1316,-0.1325,-0.1322,-0.1328,-0.133,-0.1334,-0.1322,-0.132,-0.1319,-0.1315,-0.1314,-0.1335,-0.1335,-0.1335,-0.1335,0,-0.1151,-0.116,-0.1161,-0.1182,-0.119,-0.1196,-0.1216,-0.1223,-0.1235,-0.1249,-0.1258,-0.1275,-0.129,-0.1293,-0.1305,-0.1303,-0.1307,-0.1317,-0.133,-0.1315,-0.1312,-0.131,-0.1333,-0.1333,-0.1334,-0.1334,0,0,-0.1121,-0.1151,-0.1151,-0.1161,-0.1183,-0.119,-0.1196,-0.1211,-0.1216,-0.123,-0.1236,-0.1251,-0.126,-0.127,-0.1284,-0.1285,-0.1275,-0.1296,-0.1297,-0.1292,-0.1273,-0.1266,-0.1264,-0.1283,-0.1283,-0.1283,-0.1272,0,-0.1109,-0.1121,-0.1139,-0.1146,-0.1154,-0.1174,-0.118,-0.1194,-0.1206,-0.1215,-0.1229,-0.124,-0.1252,-0.1258,-0.126,-0.1275,-0.1271,-0.1276,-0.1289,-0.1289,-0.1285,-0.1262,-0.1254,-0.1243,-0.1271,-0.1271,-0.1271,0,-0.1097,-0.111,-0.1117,-0.1138,-0.1142,-0.1147,-0.1161,-0.117,-0.1186,-0.1195,-0.1205,-0.122,-0.1227,-0.1238,-0.1248,-0.1251,-0.1257,-0.1265,-0.1265,-0.1268,-0.1279,-0.1264,-0.124,-0.1238,-0.1269,-0.1269,-0.1269,0,-0.1074,-0.1093,-0.11,-0.1107,-0.1132,-0.1134,-0.1145,-0.1161,-0.1169,-0.1181,-0.1186,-0.12,-0.1207,-0.1217,-0.1235,-0.1241,-0.1243,-0.1255,-0.1251,-0.1251,-0.1251,-0.1251,-0.1228,-0.1254,-0.1254,-0.1254,-0.1254,0,-0.106,-0.1064,-0.109,-0.1094,-0.1099,-0.1119,-0.1122,-0.1135,-0.1149,-0.1156,-0.1174,-0.118,-0.1202,-0.1211,-0.1225,-0.1231,-0.1234,-0.1242,-0.1246,-0.1241,-0.124,-0.1246,-0.1247,-0.1254,-0.1254,-0.1254,-0.1254,0,-0.1036,-0.1053,-0.1062,-0.1084,-0.109,-0.1092,-0.1111,-0.1116,-0.1129,-0.1138,-0.1141,-0.1162,-0.1173,-0.1191,-0.1207,-0.1217,-0.1221,-0.1227,-0.1215,-0.1218,-0.1212,-0.1213,-0.1193,-0.1191,-0.1218,-0.1217,-0.1217,0,-0.1026,-0.1029,-0.1051,-0.1057,-0.1066,-0.1075,-0.1083,-0.1102,-0.111,-0.1128,-0.113,-0.1142,-0.1153,-0.117,-0.1186,-0.1199,-0.1206,-0.1198,-0.1208,-0.1202,-0.1206,-0.1206,-0.1206,-0.1196,-0.1195,-0.1195,-0.1195,0,-0.1006,-0.1014,-0.1025,-0.1038,-0.1046,-0.1057,-0.107,-0.1073,-0.1095,-0.1102,-0.1114,-0.1122,-0.1138,-0.115,-0.1165,-0.1175,-0.1189,-0.1191,-0.1191,-0.1186,-0.118,-0.1184,-0.1209,-0.1192,-0.1192,-0.1192,-0.1192,-0.1193,-0.0989,-0.0993,-0.1009,-0.1019,-0.103,-0.1041,-0.1047,-0.106,-0.107,-0.1085,-0.1095,-0.1106,-0.1121,-0.1142,-0.1152,-0.116,-0.1166,-0.1166,-0.1166,-0.1166,-0.1164,-0.1178,-0.1163,-0.1163,-0.1163,-0.1163,-0.1163,0,-0.097,-0.0981,-0.0991,-0.1007,-0.1016,-0.1027,-0.1041,-0.1047,-0.1056,-0.1069,-0.1079,-0.1091,-0.1103,-0.112,-0.1133,-0.1136,-0.1143,-0.1139,-0.1139,-0.1141,-0.1157,-0.1157,-0.1133,-0.1133,-0.1133,-0.1134,-0.1134,-0.1134,-0.0962,-0.0969,-0.0979,-0.0991,-0.1002,-0.1012,-0.1019,-0.1029,-0.104,-0.1053,-0.1062,-0.1073,-0.1088,-0.1102,-0.1113,-0.1117,-0.1122,-0.1116,-0.1123,-0.1138,-0.114,-0.1143,-0.1142,-0.1117,-0.1117,-0.1106,-0.1106,-0.1106]}]]